Theta_e
325 318 308 303 303 303 302 303 302 302 303 304 304 304 303 304 303 302 301 302 302 303 304 305 305 305 305 303 302 301 298 297 297 298 303 307 306 303 303 304 306 304 302 303 305 305 304 306 307 308 309 309 309 309 309 309 309 309 309 309 308 308 308 308 309 309 310 310 311 311 311 311 311 310 310 310 309 309 310 310 308 308 310 312 312
325 320 310 303 303 303 302 302 302 302 302 303 304 304 304 303 302 302 302 302 302 302 303 304 303 304 304 303 302 301 299 298 297 298 301 304 305 302 300 303 304 303 301 301 303 304 304 306 307 307 309 309 309 309 309 309 309 309 309 309 308 308 308 308 309 309 310 310 311 311 311 311 311 310 310 310 309 309 309 309 308 307 309 310 310
326 322 314 306 303 303 303 302 302 302 302 302 303 303 304 304 303 302 302 302 302 302 302 302 302 303 304 303 302 301 299 298 298 297 298 301 305 304 302 303 303 303 302 300 301 304 305 306 307 307 308 309 309 309 309 309 309 309 308 308 308 308 308 308 309 310 310 311 311 311 311 311 310 310 310 310 309 309 309 309 308 307 308 308 309
327 324 318 310 304 303 303 302 302 302 302 302 302 302 303 303 303 303 302 302 302 302 302 301 302 303 304 304 304 302 300 299 297 297 297 299 302 304 304 305 304 303 301 297 298 302 304 305 307 307 308 309 309 310 309 308 309 309 308 308 308 308 308 309 309 310 311 311 311 311 311 311 310 309 310 311 310 309 308 308 308 308 308 307 308
327 326 322 316 309 304 303 302 302 302 302 302 302 302 302 302 302 302 301 301 302 302 302 302 302 304 305 305 305 303 300 298 297 296 297 297 299 301 302 303 304 303 301 298 297 300 303 305 306 307 308 309 309 309 309 308 309 309 308 308 308 308 308 308 309 310 310 310 311 311 311 311 310 310 310 310 310 309 309 308 308 308 308 308 307
327 326 324 321 316 310 306 304 302 302 302 302 302 301 301 301 301 301 301 301 302 302 303 303 302 303 306 306 304 302 300 299 297 296 296 297 298 301 301 302 303 302 300 299 297 297 301 304 306 307 308 308 309 309 308 308 309 309 308 308 308 307 307 308 309 310 310 310 311 311 312 311 310 311 310 310 310 310 309 308 307 307 307 308 308
327 327 326 324 321 318 314 309 306 304 303 302 302 302 301 301 301 301 301 301 301 301 303 305 303 302 304 304 303 301 300 299 298 296 296 297 298 301 302 303 304 301 299 300 297 296 300 302 304 306 307 307 307 307 306 307 308 308 308 308 308 307 307 308 309 309 310 310 311 311 311 311 311 311 310 310 310 310 309 309 308 307 307 307 308
328 328 327 326 325 323 319 315 312 310 309 307 305 302 302 302 303 303 303 301 300 301 303 305 304 302 302 302 301 301 299 299 298 296 296 296 297 300 302 303 305 304 302 302 299 297 300 301 301 304 305 305 305 305 305 305 307 308 308 307 307 307 308 308 309 309 310 310 310 311 311 311 311 310 309 309 310 310 310 309 309 308 307 307 307
330 329 329 328 327 325 323 320 318 316 316 314 311 308 306 306 306 305 305 303 301 301 302 303 303 302 302 302 301 300 300 299 298 297 296 296 297 300 302 302 303 303 302 303 302 299 299 300 300 301 302 303 303 304 305 305 305 306 306 306 306 307 308 309 309 309 310 310 310 310 311 311 311 310 309 309 310 310 310 310 309 308 308 308 308
331 330 330 330 329 327 325 323 321 320 319 318 317 315 314 312 310 308 306 305 303 301 301 301 301 300 301 303 302 300 300 299 298 297 296 296 296 298 301 302 302 301 300 301 300 299 299 301 300 300 301 302 303 304 305 305 305 305 304 304 304 305 307 309 310 310 310 310 310 311 311 310 310 310 308 309 310 310 310 309 309 308 308 308 308
332 331 331 331 330 329 328 326 324 322 321 320 319 318 317 317 316 314 310 308 305 303 301 300 301 300 301 303 303 301 300 299 299 298 296 296 296 296 299 301 301 300 300 300 299 298 300 301 301 302 302 302 304 305 305 305 305 304 304 304 303 303 306 308 310 310 310 310 311 311 311 310 310 310 308 309 310 310 309 309 309 309 309 309 308
331 331 331 331 330 330 329 328 327 325 324 322 320 320 318 318 318 317 316 313 308 306 305 302 301 301 301 303 303 302 301 299 298 298 296 296 296 295 298 300 301 300 298 298 298 297 298 300 302 304 304 302 304 306 306 305 305 304 305 305 304 303 305 307 309 309 310 310 310 311 310 310 310 309 308 309 310 310 309 310 310 309 309 309 309
331 331 330 330 330 329 329 328 328 327 325 324 322 321 320 319 319 318 318 316 313 311 308 305 303 302 302 302 302 303 303 300 298 298 296 296 296 295 296 298 300 300 297 296 295 294 295 300 304 305 304 303 304 306 307 306 306 306 306 306 305 304 304 307 308 309 310 310 310 310 310 310 310 309 309 310 310 310 309 309 309 309 309 309 309
330 329 329 329 328 328 327 327 327 326 325 324 324 323 322 321 320 319 318 318 317 315 311 308 306 304 303 302 301 303 303 301 299 298 296 296 295 295 295 297 298 298 297 295 294 293 293 297 303 305 306 305 304 304 306 308 307 307 307 307 307 305 304 306 309 309 310 310 310 310 310 310 311 309 308 310 310 309 309 309 309 309 309 308 309
330 329 329 328 328 328 327 327 327 326 325 325 324 323 322 321 321 320 319 318 318 316 314 312 309 305 304 303 302 302 302 301 299 298 296 296 296 295 295 296 297 296 296 294 294 293 292 295 300 304 305 305 303 303 305 307 308 308 307 307 308 306 304 305 308 309 309 310 310 310 310 310 310 309 308 309 309 308 308 309 309 309 309 309 309
329 328 328 327 326 326 325 325 325 326 325 325 325 325 324 322 320 319 318 318 318 317 317 316 313 307 304 303 302 302 302 302 300 299 297 296 296 295 294 295 296 295 295 294 294 293 293 295 300 304 305 304 303 303 304 306 307 308 307 307 308 307 305 305 306 308 309 309 309 309 309 309 309 309 308 308 309 309 309 309 309 309 309 309 309
324 323 322 321 321 320 320 320 320 320 321 322 323 324 325 325 323 320 319 318 318 318 318 318 315 311 306 303 303 303 303 302 300 299 297 296 296 295 294 295 296 296 295 295 294 294 293 294 298 303 304 303 302 303 304 306 307 307 307 307 307 307 307 306 307 307 308 309 309 309 308 308 309 309 308 308 309 310 309 309 309 309 309 309 310
322 321 320 320 320 320 319 319 319 319 319 318 319 319 321 323 325 324 322 319 318 319 320 318 316 313 308 305 304 303 303 302 301 299 297 297 297 295 294 296 298 296 295 295 294 294 294 293 295 299 301 301 302 303 303 306 307 306 306 307 306 307 307 307 308 308 308 309 310 309 309 308 308 309 309 308 309 310 309 308 308 309 309 309 309
322 322 321 320 320 320 320 320 320 320 320 319 319 319 319 320 322 324 324 322 319 319 319 318 316 315 311 307 305 304 304 303 301 300 298 298 297 295 295 297 298 298 297 296 295 294 294 293 293 295 296 298 301 302 303 305 306 306 306 306 306 307 307 306 307 309 309 309 310 310 309 309 309 309 309 309 308 309 309 309 309 309 309 309 308
321 321 321 321 322 322 321 321 320 320 320 320 320 320 320 320 320 322 323 323 321 319 318 317 316 315 313 310 307 305 305 304 302 300 300 299 297 295 295 296 298 299 298 296 295 294 295 296 295 293 294 296 298 301 302 303 305 306 306 306 306 306 307 306 306 308 309 309 310 310 309 309 309 309 310 309 308 308 309 309 309 310 309 309 308
317 318 319 321 321 321 321 320 318 318 319 319 320 320 320 320 320 320 321 321 321 319 317 316 316 315 315 313 310 307 306 305 303 301 301 300 297 295 295 294 298 301 299 296 295 296 298 300 298 294 293 294 294 298 301 302 303 305 305 305 304 304 306 307 307 308 309 309 309 309 308 308 309 309 309 309 308 308 308 308 309 309 309 309 308
313 315 316 317 317 317 316 314 314 316 317 317 317 318 319 319 320 320 320 320 320 320 318 317 316 316 316 314 312 311 308 306 305 303 302 301 298 295 294 294 297 301 299 296 295 298 300 301 298 294 294 294 293 294 297 300 302 303 303 302 302 303 305 307 307 308 308 308 308 308 308 308 308 308 309 308 308 308 308 308 308 308 308 309 308
313 313 314 316 315 314 314 315 315 318 318 317 316 317 318 318 319 320 320 320 319 319 318 317 317 316 316 315 313 313 310 308 307 306 303 301 299 296 294 294 295 297 297 295 295 297 298 299 296 294 294 294 293 292 294 298 301 302 302 302 302 304 306 306 307 307 307 308 308 307 307 307 307 307 308 308 308 308 309 309 308 308 308 308 308
313 314 316 317 317 316 317 318 318 318 318 317 317 318 319 319 319 320 320 320 319 319 318 318 318 317 316 315 314 313 312 310 309 307 304 302 300 297 294 294 295 295 295 295 296 297 296 295 294 294 294 293 293 292 293 296 300 301 301 301 302 305 306 307 307 308 307 307 307 307 307 307 307 307 307 307 307 308 308 309 309 309 308 308 307
311 313 315 317 317 316 317 317 316 316 317 317 317 318 318 319 319 319 319 319 319 319 318 318 318 317 316 315 314 314 313 312 311 309 306 303 301 299 296 294 294 294 294 294 296 296 296 295 294 294 294 293 292 292 292 296 299 301 301 301 303 306 306 306 307 308 307 307 307 307 307 307 307 307 307 307 307 307 308 309 309 309 308 307 307
308 312 314 315 315 316 316 315 314 315 315 316 316 316 317 317 318 318 318 318 318 318 318 317 318 317 317 316 315 314 314 313 312 310 307 304 302 301 299 295 294 294 294 294 296 296 295 295 295 294 293 293 292 292 293 296 300 301 301 302 304 306 306 307 307 307 307 307 307 307 307 307 306 307 307 307 307 308 309 309 309 309 308 308 308
309 312 314 314 314 315 314 313 313 313 314 315 314 315 315 316 316 316 317 317 317 318 318 317 317 317 317 317 316 315 314 314 313 311 309 306 304 303 301 297 294 294 294 294 295 296 296 295 295 294 293 292 292 292 293 297 301 302 302 303 305 306 306 306 307 307 307 307 307 307 307 307 307 307 307 307 307 307 308 309 309 309 309 308 308
310 313 314 313 314 314 313 312 311 312 313 313 313 314 314 314 314 314 314 315 316 316 317 317 317 317 317 317 316 316 314 313 313 312 311 310 307 304 302 298 294 294 294 294 295 296 296 296 296 295 293 293 293 294 295 299 303 304 303 304 305 304 304 304 305 306 307 307 307 307 307 307 307 307 307 307 307 307 308 309 309 309 309 309 308
311 312 313 312 312 312 311 310 310 310 311 311 311 311 312 312 312 312 312 312 312 312 314 315 316 317 317 316 316 316 314 313 313 312 312 312 310 306 303 300 297 294 294 295 295 296 296 296 295 295 294 295 297 297 298 300 303 304 304 304 304 304 304 305 306 306 306 306 306 307 307 307 307 307 307 307 307 308 308 309 309 309 309 308 308
310 310 311 310 310 310 308 308 308 308 309 309 309 309 309 309 310 310 310 309 308 308 310 312 313 315 316 316 316 315 313 312 312 312 311 312 310 306 304 302 298 295 294 295 295 296 296 296 296 296 297 298 298 298 298 301 303 304 304 304 304 304 304 305 305 305 305 306 306 306 306 307 307 307 307 306 307 308 308 308 309 309 308 308 307
308 308 308 308 307 307 306 306 307 307 307 308 309 309 309 309 309 309 309 308 307 306 306 307 310 312 314 315 315 315 313 312 312 311 311 310 309 307 305 302 298 295 295 295 295 296 296 296 296 297 299 299 298 297 298 300 303 304 304 304 304 304 304 304 304 304 305 305 305 305 306 306 307 307 306 306 307 308 308 308 308 309 308 308 307
306 306 307 307 307 306 306 307 307 308 308 309 309 310 310 310 310 310 309 309 309 308 306 305 306 309 311 313 315 315 314 313 312 311 311 309 308 307 305 302 298 296 295 295 294 296 296 296 297 298 298 298 298 296 296 299 303 304 304 304 304 304 304 304 304 304 304 304 305 305 305 306 306 306 306 306 307 308 309 308 308 308 308 307 307
305 306 307 307 307 307 307 308 309 309 309 309 309 310 310 310 310 310 310 310 310 309 309 308 307 307 309 311 313 315 315 313 312 311 310 309 307 306 305 302 300 297 296 294 294 295 296 296 297 298 297 298 297 295 296 299 302 303 304 304 303 303 304 303 303 304 304 304 304 304 305 305 306 306 306 307 307 308 309 308 308 308 308 307 307
305 306 307 307 307 308 308 308 308 309 309 309 309 309 309 309 309 309 309 310 310 310 310 310 310 309 308 309 311 314 315 314 312 311 310 308 306 304 304 302 299 297 296 295 294 295 296 296 296 296 296 297 297 296 295 298 301 303 304 304 303 303 304 303 303 303 304 303 304 304 305 305 306 306 306 307 307 308 309 309 308 308 308 307 307
306 307 307 307 308 308 308 307 307 307 307 307 307 306 306 306 306 307 308 309 309 310 310 310 311 310 309 309 309 312 314 314 312 311 310 308 305 303 303 301 299 298 297 296 295 295 296 296 296 295 295 296 297 296 295 297 300 302 303 304 303 303 303 303 303 303 303 303 304 304 304 304 305 305 306 306 307 308 309 309 309 309 308 308 307
307 307 307 307 307 306 306 305 305 305 305 305 304 304 304 304 305 306 307 308 308 309 310 310 310 310 309 309 309 310 313 314 312 310 310 307 304 303 303 301 299 299 298 296 295 295 296 296 296 295 294 295 296 296 295 296 299 301 302 303 303 303 302 302 303 303 303 303 303 303 304 304 304 305 305 306 307 307 308 308 309 308 308 308 308
306 306 306 306 305 304 304 304 304 303 303 302 302 302 303 303 304 304 305 306 307 308 308 309 309 309 309 309 309 309 311 313 312 309 309 307 304 303 302 302 301 301 300 297 296 295 296 296 296 295 295 295 295 295 295 296 298 301 302 303 303 303 302 302 303 303 303 303 303 303 304 304 304 305 305 305 306 307 307 308 308 308 308 308 308
305 305 305 304 303 303 303 303 302 302 301 301 302 302 302 302 302 302 303 304 304 305 307 308 309 309 309 309 309 309 310 312 311 310 309 307 304 302 302 302 302 301 300 298 297 295 296 297 297 296 295 295 295 295 295 296 298 300 301 302 303 303 302 302 302 302 303 303 302 302 303 303 304 304 305 305 305 306 307 307 308 308 308 308 308
305 304 304 304 303 302 302 301 301 301 301 301 301 301 301 301 301 301 302 302 303 304 305 306 308 309 309 309 309 308 309 311 311 310 309 308 305 302 302 302 302 301 300 300 298 296 296 297 298 296 294 295 295 294 295 296 297 298 300 301 302 302 302 302 301 302 302 302 302 302 303 303 303 304 304 304 305 306 306 307 307 307 308 308 308
304 304 304 303 302 302 301 301 300 300 300 300 299 299 299 300 300 300 301 301 301 302 303 303 305 306 308 308 308 308 308 309 310 310 310 309 306 303 302 302 302 302 301 300 300 297 295 297 299 297 294 294 295 294 294 295 296 297 299 300 301 301 302 302 301 302 302 302 301 301 302 303 303 303 304 304 304 305 306 307 307 307 307 307 307
304 303 303 302 302 301 301 300 300 299 299 299 299 299 299 299 299 299 299 299 300 300 301 301 302 303 305 306 307 307 306 307 308 309 309 309 307 305 302 301 302 302 301 301 301 298 295 297 300 298 294 294 294 294 294 295 295 296 298 300 301 302 302 302 301 302 302 301 301 301 302 302 302 303 303 303 303 304 305 306 307 307 307 307 307
304 303 302 302 301 301 300 300 299 299 299 299 299 299 299 298 299 299 299 299 299 299 300 300 301 301 302 303 304 305 306 305 306 308 309 309 308 306 304 303 302 301 301 302 301 298 295 297 300 299 295 294 294 293 293 294 294 295 296 298 300 302 302 301 301 301 301 301 301 301 301 301 301 302 302 303 303 303 304 305 307 307 307 307 307
304 303 302 302 301 300 300 299 299 299 299 298 298 298 298 298 298 298 298 299 299 299 299 300 300 301 301 301 302 303 304 304 305 306 307 308 307 306 306 305 303 301 301 302 300 297 295 297 300 299 296 294 294 294 293 293 294 294 295 296 299 301 301 301 301 301 301 301 301 300 300 299 299 300 302 302 303 303 303 303 305 307 307 307 307
303 302 301 301 301 300 299 299 299 298 298 298 297 297 298 297 298 298 298 298 298 298 299 300 300 300 301 301 301 302 302 303 304 305 306 307 308 306 306 305 303 301 302 302 299 296 295 296 299 299 296 294 293 294 294 293 293 293 294 295 297 300 301 301 301 301 301 300 300 299 299 299 299 300 301 302 302 303 303 303 304 306 307 307 307
302 301 301 301 300 299 299 299 298 298 298 297 297 297 297 297 297 297 298 298 298 298 298 299 299 300 300 300 301 301 302 303 304 304 305 308 307 306 305 304 302 302 303 301 299 297 295 296 299 299 296 294 293 294 293 293 293 292 293 294 296 299 301 301 300 300 301 300 299 299 299 299 299 300 301 302 302 302 303 303 303 305 306 307 307
301 301 301 300 299 299 298 298 298 297 297 297 297 297 296 297 297 297 297 297 297 297 297 298 298 299 300 300 301 301 302 303 303 303 306 308 307 305 305 303 301 302 302 300 298 297 296 296 299 299 296 293 293 294 293 293 292 291 292 293 294 297 300 301 300 300 301 300 299 299 299 300 300 300 301 301 301 301 302 303 304 304 305 306 307
301 301 300 299 299 298 298 297 297 297 297 297 296 296 296 296 296 296 296 297 297 297 297 297 298 298 299 300 301 301 302 302 302 303 305 307 306 305 305 303 301 302 302 300 298 297 296 297 299 298 295 293 294 294 293 292 291 291 291 291 293 297 301 301 300 301 301 300 300 300 300 300 300 300 300 301 301 301 302 303 303 304 304 305 306
301 300 299 299 298 298 297 297 297 296 296 296 296 296 296 296 295 296 296 296 296 296 297 297 298 298 299 300 301 301 302 302 301 302 305 306 306 305 304 303 302 302 303 301 298 296 296 298 299 298 294 293 294 294 293 292 291 291 291 291 293 296 299 299 300 301 300 300 300 300 300 300 300 300 301 301 301 301 302 303 303 303 304 304 305
300 300 299 298 298 297 297 296 296 296 296 296 296 295 295 295 295 296 296 296 296 296 296 297 298 298 299 300 301 302 302 301 301 302 305 306 305 304 304 303 302 303 303 301 297 295 296 300 300 297 294 294 294 293 292 291 291 291 291 291 292 293 294 296 299 301 300 300 300 300 300 300 300 300 300 301 301 301 301 302 302 303 303 304 304
300 299 298 298 297 297 296 296 296 296 296 296 296 296 296 296 296 297 297 297 297 297 296 297 297 298 299 300 301 302 302 301 301 303 305 305 304 304 304 303 303 303 303 300 296 295 298 300 299 296 294 294 293 293 291 291 291 291 291 291 291 290 291 295 299 300 299 300 300 300 300 300 300 300 301 301 300 300 301 301 302 303 303 304 304
299 298 298 297 297 296 296 296 296 296 296 296 296 296 296 297 297 298 298 299 299 298 297 297 297 298 299 300 300 302 302 301 301 303 305 305 304 304 305 304 303 302 302 299 295 296 299 300 298 296 295 294 293 292 291 290 291 291 291 291 290 290 292 294 297 298 299 300 300 300 300 300 300 301 301 301 300 300 301 302 303 303 304 304 304
Wind_Speed
7 7 8 8 8 7 7 7 7 7 7 7 6 6 6 7 8 8 8 8 8 8 9 9 9 9 9 9 9 10 10 10 9 8 5 5 6 7 7 7 7 9 10 9 9 10 9 7 7 7 7 9 11 11 12 13 14 16 16 17 17 18 19 17 16 16 17 17 17 16 17 20 22 23 21 19 19 22 26 26 24 29 32 31 29
8 8 8 8 8 8 8 8 8 8 8 8 8 8 7 7 7 8 8 8 8 8 9 9 10 10 10 10 10 9 9 9 9 8 5 4 5 7 8 8 8 10 10 9 8 9 8 6 7 7 7 8 9 11 12 13 14 15 16 16 17 18 18 17 15 15 16 16 16 16 17 20 22 22 20 19 17 19 25 27 24 26 31 32 31
10 9 8 8 8 9 9 8 8 8 9 9 9 9 9 8 8 8 8 8 9 9 9 10 11 11 11 11 11 10 9 9 9 8 6 4 4 6 7 8 9 10 10 10 8 8 7 6 7 7 6 7 9 10 11 12 14 15 15 16 16 17 17 16 13 12 14 15 15 16 18 20 22 21 19 18 16 17 24 27 24 23 26 30 33
12 11 9 8 9 9 9 9 9 9 10 10 10 10 10 9 8 9 9 9 10 10 10 10 11 11 11 11 11 11 10 9 9 8 6 5 3 4 5 6 8 9 10 11 9 8 7 6 6 7 7 7 9 9 10 11 13 14 15 15 16 17 16 15 12 10 11 13 13 14 17 19 19 20 19 18 16 17 21 24 24 22 23 26 29
12 12 10 10 9 9 9 10 9 10 10 10 11 10 10 10 9 9 10 10 11 11 11 11 11 11 11 11 11 12 11 10 9 8 7 6 5 4 4 5 6 8 10 12 10 8 7 5 5 7 7 7 8 9 9 11 12 14 15 15 15 16 16 14 12 10 10 12 11 12 14 16 18 19 19 17 17 16 17 21 23 22 22 24 25
12 12 11 10 10 9 9 10 9 10 10 10 11 11 11 11 11 10 11 11 12 12 12 12 12 10 10 11 11 12 12 10 9 8 7 7 6 5 5 6 6 8 9 11 10 8 6 5 5 6 7 7 7 8 9 10 11 13 15 15 15 15 15 14 12 11 10 11 11 11 12 15 18 19 18 16 16 16 15 19 23 23 21 21 21
11 11 11 10 10 10 10 10 10 10 10 10 11 11 11 12 12 11 12 12 13 13 12 13 13 12 11 12 13 12 12 10 9 9 7 7 6 5 5 6 7 8 10 10 10 9 6 5 4 5 6 6 6 8 9 9 10 12 14 15 15 15 15 14 12 10 10 10 10 11 12 14 16 17 17 15 14 16 16 18 21 23 23 22 20
10 11 10 10 10 10 10 11 11 10 10 10 11 11 11 12 12 12 13 13 13 13 13 13 14 13 13 13 13 13 12 11 10 8 7 7 6 5 4 5 6 8 9 10 10 9 6 5 4 4 4 4 5 7 9 10 10 12 14 15 15 15 15 14 13 10 10 9 9 10 11 14 15 16 17 17 16 16 16 16 17 20 23 23 20
11 11 11 10 10 9 10 12 12 12 11 11 11 11 11 11 12 13 13 13 13 13 14 14 14 14 14 14 14 13 12 11 10 8 7 7 6 5 4 4 5 6 7 8 9 8 6 5 4 3 3 3 5 7 9 9 10 12 13 15 16 15 14 13 12 10 9 9 9 9 10 14 15 16 18 19 17 16 14 14 16 18 21 24 23
11 11 11 11 10 10 11 13 13 13 13 13 13 12 13 13 13 14 14 14 14 14 14 15 15 15 14 14 14 14 13 12 11 9 8 7 6 5 4 4 5 6 7 7 8 7 5 5 4 4 4 5 6 8 8 7 9 11 13 15 17 18 14 10 10 10 9 9 10 9 11 15 15 15 17 18 15 14 14 14 16 18 20 24 25
10 11 11 12 12 12 13 14 14 14 15 15 14 14 15 15 15 15 15 15 15 15 15 15 15 15 14 14 15 15 14 13 11 9 8 7 7 6 5 5 5 6 7 7 8 6 4 4 4 4 6 5 6 7 7 6 8 10 12 13 17 20 17 11 9 11 11 10 10 10 12 15 15 14 15 16 14 14 16 16 16 18 19 21 23
10 10 11 12 12 13 14 15 15 16 16 17 17 16 17 17 17 16 16 15 15 15 16 15 15 16 15 14 15 15 15 13 11 9 8 8 8 7 6 5 5 6 7 7 7 6 4 3 3 4 4 4 4 5 5 5 6 8 10 12 15 18 18 14 11 11 11 10 10 10 13 15 15 14 15 15 14 14 17 16 16 18 20 21 22
8 9 10 11 12 13 14 15 16 17 17 17 17 18 18 19 19 18 17 17 17 17 17 15 15 15 15 15 15 14 15 13 10 9 9 8 8 8 7 6 5 6 7 6 6 5 3 2 2 3 3 3 3 3 3 4 5 8 11 12 13 16 18 15 13 12 12 12 12 12 13 14 13 14 15 14 13 14 17 17 16 18 20 21 20
7 8 8 9 11 12 12 13 14 15 16 16 17 18 19 19 20 20 20 19 18 18 18 17 16 15 15 16 15 15 15 13 10 10 9 8 8 8 8 7 6 6 7 6 5 4 2 1 1 2 3 3 1 2 2 3 4 7 9 9 9 12 16 16 12 10 11 13 13 13 13 13 12 13 14 13 13 14 17 16 16 18 20 21 21
5 6 7 8 9 10 11 11 12 13 14 16 17 17 18 20 21 21 22 22 20 19 19 18 18 18 16 15 16 16 16 13 11 10 9 9 9 8 8 8 6 6 7 5 4 4 1 1 2 2 1 1 1 2 2 3 3 4 6 6 6 8 12 15 12 8 9 11 11 11 11 12 12 13 14 13 14 16 17 15 15 16 17 19 20
5 6 7 7 8 9 10 11 12 14 15 16 18 18 19 20 21 22 24 24 23 22 20 19 19 20 18 16 16 17 16 13 11 11 10 9 9 8 8 8 7 6 7 5 3 3 2 1 2 1 0 1 2 3 3 4 5 3 4 6 7 6 8 13 13 9 9 10 10 10 10 10 12 13 13 13 13 14 14 13 13 14 16 18 20
7 7 8 9 9 10 11 12 13 14 15 16 18 19 20 20 21 22 24 25 24 23 21 20 21 20 20 19 16 16 16 13 11 11 10 9 10 9 8 8 7 7 6 4 3 3 2 2 3 2 2 3 3 4 5 5 5 3 3 5 6 6 7 11 12 10 9 8 8 9 9 10 12 13 12 12 11 11 12 13 13 13 14 17 20
8 9 9 10 11 12 12 13 13 14 15 16 17 18 20 21 22 23 24 26 26 23 21 22 24 22 21 21 17 16 16 14 11 11 10 10 10 10 8 8 8 7 6 5 4 4 3 3 4 4 4 5 5 5 6 6 4 2 2 3 4 6 6 8 8 7 7 7 7 8 8 9 11 12 11 11 12 12 12 14 15 14 13 15 18
9 10 12 13 14 14 14 15 15 15 16 17 17 18 19 21 22 23 24 26 27 25 22 24 25 22 22 23 19 16 16 14 12 11 10 11 11 11 9 9 9 8 7 6 5 5 3 3 3 4 5 5 5 6 6 6 5 2 2 3 3 4 5 5 3 3 5 6 7 8 8 9 10 10 9 10 11 13 13 13 14 14 13 12 14
12 13 14 15 15 15 16 17 18 18 18 18 19 19 20 21 22 23 23 24 26 25 25 26 26 23 24 25 21 17 16 14 12 12 11 11 12 12 10 10 10 9 8 7 7 5 3 2 3 3 4 5 7 7 7 7 6 3 2 2 2 2 3 4 4 4 5 5 7 7 7 8 9 8 8 8 11 13 13 13 12 12 12 11 11
15 15 15 15 15 15 17 19 21 21 20 20 20 20 21 22 23 23 23 23 23 22 23 26 25 22 23 24 22 19 18 15 12 12 12 12 12 12 11 10 10 10 9 9 8 6 4 4 4 3 3 4 6 7 8 8 6 4 3 3 3 4 5 4 5 4 5 4 6 6 6 6 7 7 8 8 10 11 12 13 12 11 12 13 11
15 16 16 15 16 18 19 21 22 22 21 21 22 21 21 22 24 24 24 23 23 22 21 20 18 17 19 23 22 21 20 17 14 13 13 13 13 12 12 11 11 11 11 10 9 8 7 8 7 4 3 2 3 6 9 9 8 6 5 4 4 5 7 5 3 2 4 4 5 6 6 6 6 6 7 7 8 10 11 12 12 12 12 12 12
16 17 16 15 16 18 17 18 18 17 18 19 21 20 20 21 22 22 20 19 21 21 18 15 13 13 16 20 23 23 21 20 18 15 14 14 13 12 12 11 11 12 12 12 11 9 10 10 8 4 4 3 2 4 8 10 10 8 6 5 5 7 8 6 2 2 3 4 5 5 6 6 6 5 6 5 5 8 10 11 11 12 11 11 12
18 18 16 15 16 17 15 14 14 15 16 17 17 16 16 17 17 17 15 15 16 17 15 13 13 14 14 17 21 23 23 23 21 16 14 15 14 13 12 12 12 12 12 12 11 11 11 10 7 5 4 3 2 3 7 10 11 9 7 7 7 8 7 4 2 2 4 4 4 5 5 5 5 4 5 5 5 6 8 9 10 10 10 10 11
20 18 16 15 16 16 15 14 15 16 16 16 15 15 15 14 14 15 15 15 16 16 15 14 14 15 15 16 19 22 23 23 22 18 15 15 15 14 12 12 13 13 13 13 12 11 10 8 5 4 4 3 3 4 6 9 11 9 9 9 8 7 5 3 2 3 4 4 4 4 4 4 4 4 4 4 5 5 6 8 9 10 10 10 10
21 18 17 17 16 16 16 17 18 18 16 15 16 15 14 14 14 14 15 16 17 17 17 16 15 15 16 15 16 19 21 21 21 20 18 16 16 16 14 13 14 14 14 14 13 11 10 7 4 4 4 4 4 5 7 10 11 10 10 9 8 5 4 4 3 3 5 5 4 4 4 4 4 4 4 4 5 5 6 9 11 11 10 10 11
20 17 17 18 17 16 17 19 21 21 18 17 17 16 15 15 14 14 14 15 16 16 16 17 16 16 16 15 15 18 21 19 19 22 21 18 17 17 16 15 16 16 16 15 13 12 9 7 4 3 4 4 4 6 9 11 10 9 8 7 6 6 6 6 5 5 5 5 5 5 5 4 5 5 4 4 5 6 9 12 13 12 10 9 10
19 17 17 17 17 17 19 21 22 21 20 20 20 18 17 16 16 16 16 15 16 16 16 16 17 16 16 16 16 18 21 21 20 21 22 20 19 18 18 17 17 17 17 16 15 12 10 7 5 4 4 5 5 5 8 9 8 7 7 7 7 8 8 7 6 6 6 5 5 5 5 5 5 5 5 5 5 8 12 14 13 12 10 9 9
18 17 17 18 18 19 21 23 23 22 22 23 22 21 20 20 20 20 20 19 19 19 18 18 18 15 14 16 16 18 21 21 17 15 18 19 18 18 18 17 17 17 17 17 15 13 11 9 7 4 4 6 5 5 6 7 7 8 9 8 8 8 7 6 6 6 5 6 6 6 5 5 5 5 5 5 7 11 15 16 13 11 10 9 9
18 18 18 19 20 22 24 24 24 23 23 23 23 23 23 23 24 24 24 24 25 24 22 21 19 17 15 15 16 17 20 19 13 11 14 17 17 16 17 15 14 16 17 16 15 14 12 10 7 5 5 6 6 6 7 8 8 9 9 10 9 8 8 7 6 6 5 6 6 5 6 6 5 5 6 5 8 14 17 16 14 11 10 10 10
20 20 21 21 22 25 26 25 24 24 24 23 23 23 23 23 24 24 25 26 28 28 26 23 21 20 19 18 16 17 19 18 15 13 13 14 15 16 17 15 14 15 16 17 17 16 13 11 9 8 8 8 7 7 7 8 9 9 10 10 10 9 9 8 8 7 6 6 6 6 6 5 4 5 6 6 9 15 18 17 15 12 10 11 11
22 23 22 22 23 24 25 24 23 22 22 22 22 22 23 23 23 22 23 24 27 29 29 26 23 22 21 19 17 17 17 17 17 15 12 12 15 17 17 17 17 17 17 18 17 16 14 12 10 9 9 8 8 8 8 8 9 10 10 10 10 10 9 9 9 8 7 6 6 6 6 6 5 6 6 7 11 16 18 17 15 13 11 11 12
23 23 22 22 23 23 23 22 22 21 22 22 22 22 21 22 22 22 22 24 25 27 27 26 23 21 20 20 18 16 15 15 17 16 14 13 16 18 19 20 19 18 19 19 19 18 16 13 11 10 9 9 8 8 9 9 9 9 10 10 10 10 10 10 10 9 7 6 6 6 7 6 5 6 7 8 12 17 19 17 15 14 13 12 13
24 23 22 22 22 21 21 21 21 21 22 22 22 21 21 22 23 24 23 23 23 23 23 23 22 20 19 19 18 17 15 14 17 18 16 14 16 20 22 21 20 20 19 19 19 19 18 15 13 11 9 9 9 8 9 9 9 9 10 10 10 10 10 10 10 8 8 8 7 6 7 7 5 5 7 9 12 17 19 17 15 15 15 14 13
23 22 20 19 19 19 20 21 21 21 20 19 21 23 24 24 24 23 22 21 21 21 20 20 20 20 19 17 16 16 15 14 16 18 17 16 18 22 24 25 25 23 21 19 19 19 18 16 14 12 10 10 9 9 9 10 9 10 10 10 11 11 11 11 10 9 9 8 7 7 8 8 6 5 7 9 13 17 19 18 16 16 17 17 14
20 21 20 19 19 19 20 20 18 18 19 20 22 23 23 21 20 20 19 20 20 20 20 18 18 20 21 18 16 15 14 14 15 19 19 19 20 24 27 29 28 25 23 21 20 19 18 17 15 12 10 10 10 9 9 10 10 10 10 11 11 11 11 11 11 10 10 9 8 8 8 8 7 6 7 9 12 15 18 18 17 16 18 19 16
19 20 20 19 20 21 20 19 18 19 21 21 20 20 19 19 19 19 19 19 19 19 19 18 17 18 19 19 17 15 13 12 14 18 21 20 21 24 27 29 28 26 24 22 20 20 20 18 16 13 11 10 10 10 10 11 11 10 10 11 11 12 12 12 12 12 10 9 9 9 8 8 8 7 7 9 12 14 16 18 18 18 19 19 18
19 20 22 24 25 23 19 18 19 20 20 18 17 18 20 20 20 19 19 19 18 18 18 17 17 16 15 15 17 16 13 12 14 19 23 24 24 25 28 29 28 25 24 22 20 20 21 19 17 15 13 11 11 10 10 11 11 11 12 12 12 14 16 15 13 12 11 10 9 9 9 9 9 8 8 9 12 15 16 16 18 19 19 18 18
20 21 23 26 28 23 19 18 19 18 18 17 18 20 21 20 20 19 19 18 18 17 17 16 16 15 13 12 15 17 14 12 14 20 25 28 27 26 28 30 28 26 25 24 21 20 20 19 17 15 14 13 12 11 11 11 11 12 12 12 11 14 16 14 12 11 11 10 10 9 9 9 9 10 9 9 11 15 16 16 18 20 20 18 18
20 20 21 24 26 23 20 19 18 17 17 19 20 21 20 20 20 19 19 19 18 18 18 17 15 15 13 11 13 15 13 11 13 18 24 29 30 29 29 31 32 29 27 25 21 20 21 20 17 16 15 14 13 12 12 11 12 12 13 12 11 13 15 13 12 12 12 11 11 10 10 10 10 10 10 10 11 14 16 17 18 19 19 19 18
20 21 20 21 22 21 20 18 17 17 18 18 18 19 19 19 19 18 18 19 19 18 18 18 17 15 14 13 14 15 13 10 12 17 21 26 30 31 31 32 33 30 27 24 21 20 21 21 18 17 16 15 14 13 12 12 12 13 13 12 12 14 14 13 13 13 12 12 11 11 11 11 12 11 10 10 10 12 15 18 19 19 19 19 18
25 22 19 19 20 19 18 17 17 18 18 17 18 19 20 21 21 21 20 19 19 19 19 18 17 16 15 15 16 18 16 12 12 16 20 23 26 29 31 31 30 29 27 23 21 21 23 22 19 18 17 17 16 14 13 13 13 13 13 13 13 14 14 14 14 14 13 13 13 12 12 12 12 11 10 10 11 11 13 16 19 20 20 19 17
29 22 18 18 18 18 17 18 19 19 20 21 22 24 24 24 24 22 21 20 20 19 18 17 16 16 15 14 16 19 18 15 13 14 18 21 23 27 30 29 27 27 28 24 21 22 23 22 20 19 18 18 17 14 13 13 13 13 14 14 14 14 15 15 15 15 14 14 14 14 13 11 10 10 10 10 10 11 11 14 17 20 21 19 17
25 19 17 18 18 17 17 19 20 22 24 26 26 26 26 25 23 21 21 20 20 20 18 17 15 15 14 13 14 15 16 16 14 13 16 19 22 25 28 28 27 28 28 24 22 22 23 23 22 20 18 18 18 15 13 13 13 14 14 15 15 16 15 16 16 16 15 15 14 14 12 10 10 11 12 10 10 11 12 14 16 20 22 21 18
21 18 19 20 18 18 18 19 22 25 26 25 24 25 25 24 22 21 21 21 21 21 19 18 17 16 14 13 13 13 13 14 13 13 15 19 22 24 27 29 29 29 28 26 25 24 24 24 23 20 18 19 19 17 15 14 14 15 15 15 17 17 16 16 17 16 15 15 14 13 12 10 9 10 12 10 9 11 13 14 17 21 24 23 20
21 20 20 19 19 20 21 22 25 26 25 24 24 25 25 24 23 22 21 22 22 21 20 19 18 17 15 13 13 13 13 12 12 13 16 19 22 25 28 31 32 30 28 26 26 26 26 25 24 21 19 19 20 18 16 15 15 15 16 16 17 17 16 16 17 16 15 15 14 12 11 11 10 11 12 11 9 10 12 14 17 21 25 26 24
20 20 19 19 20 22 23 25 26 26 27 27 27 26 26 26 25 25 24 24 22 21 20 19 18 17 16 14 13 13 13 12 12 14 17 19 22 25 30 33 34 32 29 27 27 27 27 26 24 21 19 20 20 19 16 14 14 15 16 17 17 17 17 18 19 17 15 15 14 12 12 12 11 11 12 11 10 10 12 15 17 20 24 27 26
19 19 20 21 23 24 25 26 26 26 27 28 27 27 27 27 26 25 25 24 23 21 20 18 17 16 15 14 13 13 12 12 12 14 17 19 22 26 31 35 36 34 30 28 28 29 28 26 24 21 19 20 20 18 16 15 14 15 16 17 19 20 21 21 19 17 16 15 14 13 12 11 11 11 11 10 10 12 15 18 19 20 22 25 26
19 20 21 23 25 26 27 26 25 25 26 27 27 28 27 26 26 25 24 23 22 21 19 18 17 16 15 14 13 12 12 12 12 14 17 19 23 28 32 35 36 35 30 27 29 30 28 25 23 20 19 20 19 17 15 15 15 15 17 18 20 23 25 24 22 19 17 16 14 13 12 11 11 11 11 10 10 11 14 18 21 22 23 25 25
20 20 21 24 26 27 26 25 24 26 27 27 27 28 27 26 26 24 22 21 20 19 18 18 17 16 15 15 13 11 11 12 14 16 18 20 24 29 33 36 38 35 29 27 29 30 27 24 22 20 19 19 19 16 15 15 16 17 17 17 18 22 26 27 24 22 19 16 14 13 13 12 12 11 10 10 11 11 12 17 22 24 24 25 25
20 20 23 25 26 27 26 26 27 28 28 27 27 28 27 26 24 22 20 20 19 17 17 17 16 15 15 14 13 11 10 11 14 18 19 21 26 31 34 38 38 34 30 29 31 30 26 23 22 20 19 19 18 16 16 16 17 16 16 16 18 23 27 27 25 23 21 17 14 13 13 12 12 11 11 10 11 11 14 19 23 24 24 25 26
Wind_Direction
270 276 272 265 258 254 254 253 255 261 265 272 276 278 279 272 275 284 287 285 287 288 289 289 292 299 307 315 325 334 342 349 352 357 351 332 338 349 357 1 354 351 356 353 346 346 350 356 351 350 355 356 358 359 359 358 358 1 2 3 6 4 358 354 347 346 356 7 14 14 12 14 19 25 26 23 22 30 42 48 44 46 52 55 63
262 267 268 263 256 254 255 254 256 260 263 270 275 276 279 278 279 286 289 289 289 288 285 286 289 294 301 307 316 327 334 339 344 349 347 327 332 348 2 9 0 360 5 1 352 349 352 359 354 351 354 353 355 354 355 359 358 0 4 2 4 6 359 354 350 348 354 6 17 20 17 18 23 27 28 28 27 30 42 50 49 49 57 59 59
258 262 266 262 256 254 256 257 258 260 263 267 271 274 276 280 285 289 292 292 291 289 285 284 288 291 296 302 310 319 324 330 338 343 341 332 330 341 353 3 0 1 5 3 360 354 354 1 356 355 357 352 353 352 352 359 359 0 6 4 3 6 359 353 356 357 359 8 17 19 20 23 25 29 34 33 33 39 44 48 49 48 53 57 59
255 259 261 260 257 254 255 257 259 261 264 267 269 272 275 279 285 288 290 289 287 288 288 287 287 288 293 299 306 312 318 328 334 334 334 332 331 335 341 349 351 354 1 6 8 -0 354 -0 358 357 359 353 353 352 351 359 1 2 7 5 3 6 358 353 2 9 7 13 20 21 20 22 25 31 37 37 38 43 42 43 47 47 46 50 55
251 256 259 260 259 257 256 257 260 263 266 269 270 272 274 277 282 285 288 288 285 286 287 288 288 288 292 297 298 303 313 325 329 325 326 328 329 333 340 345 345 345 354 3 8 3 355 357 359 358 -0 358 356 353 353 360 1 3 8 7 6 5 357 352 1 11 17 20 23 25 22 23 29 34 35 37 43 46 41 40 45 48 47 48 52
249 254 257 259 259 260 259 259 263 266 270 273 273 274 277 280 284 287 288 287 285 286 285 285 289 287 284 287 291 297 307 316 318 316 320 323 321 326 337 344 342 340 349 358 2 5 -0 351 355 359 1 2 359 353 355 360 1 5 9 9 8 5 357 355 1 10 20 22 19 22 26 26 31 34 33 32 40 48 49 47 48 50 51 50 51
249 255 258 261 262 264 264 264 266 269 274 278 277 278 280 282 287 289 288 287 285 285 283 282 287 287 278 279 287 293 301 305 307 314 321 316 308 312 325 332 332 336 345 352 358 6 4 352 356 354 350 1 6 1 4 7 7 9 10 10 11 6 359 357 1 10 18 19 18 22 27 32 34 33 34 37 41 47 53 53 51 49 48 49 50
247 256 261 265 268 269 267 265 266 270 276 280 282 284 286 287 292 292 291 290 285 282 281 278 282 287 284 283 286 290 295 298 299 309 313 305 301 304 312 316 319 327 334 340 350 2 1 356 3 344 332 1 16 14 17 21 18 14 12 13 13 8 3 0 2 11 20 21 24 24 27 36 40 35 35 41 45 47 51 57 57 52 48 50 53
248 257 264 269 274 274 270 268 270 273 276 281 285 288 290 292 295 297 296 295 289 284 281 278 279 281 282 285 286 287 291 291 292 298 299 296 294 290 293 301 310 321 326 328 339 350 350 356 11 -0 351 9 18 23 29 31 29 23 17 16 16 13 10 7 7 16 27 33 34 32 32 37 38 36 38 41 43 46 50 60 66 62 59 58 56
254 261 268 274 275 274 273 273 276 278 278 281 284 288 291 293 295 298 298 297 293 289 284 281 280 278 277 279 282 285 287 287 287 289 289 289 285 276 278 290 302 316 324 327 336 344 345 350 4 18 18 14 22 33 39 41 37 28 20 18 18 17 16 16 21 30 40 46 42 39 41 41 37 36 42 44 44 49 55 63 70 71 69 65 62
262 266 270 275 276 275 275 277 279 281 282 284 285 286 289 291 294 296 297 297 295 289 285 282 279 277 272 270 274 281 285 285 283 280 280 283 282 272 267 275 289 308 320 326 335 341 340 345 2 14 10 13 30 35 38 49 44 29 23 24 22 19 20 30 43 45 48 49 47 50 51 47 42 42 49 50 48 56 62 65 71 76 76 74 70
264 268 270 274 277 277 278 279 280 281 282 284 286 286 286 287 289 292 294 296 294 290 288 286 282 279 275 268 269 274 279 282 279 273 272 273 276 272 261 260 279 301 312 320 330 334 332 352 19 12 357 15 43 30 20 42 47 32 25 27 26 22 26 42 57 51 50 51 49 56 59 54 48 49 55 53 47 58 68 69 72 77 79 79 78
260 265 269 273 275 277 280 281 282 283 284 285 285 285 285 284 286 288 289 291 290 290 291 289 282 280 278 274 271 268 271 278 278 271 268 264 267 269 260 253 265 286 302 314 325 330 335 13 31 14 357 15 52 47 21 18 23 29 28 22 20 20 25 43 59 55 56 65 62 60 63 63 57 55 58 54 48 62 74 74 75 79 81 82 83
267 273 279 284 286 288 292 292 292 291 290 290 288 285 285 284 284 284 283 284 286 287 288 288 283 278 276 276 272 264 266 274 275 268 264 258 259 263 259 256 259 273 291 304 314 321 331 90 80 47 6 356 59 121 81 41 18 29 34 25 19 22 27 38 52 55 60 70 68 61 61 64 62 62 65 58 55 72 82 79 78 82 84 86 87
304 307 308 309 308 310 309 306 303 298 293 289 285 282 282 282 281 281 279 279 281 281 283 285 284 279 274 272 270 265 266 272 271 263 258 253 254 257 257 256 258 271 284 291 299 305 307 144 130 104 36 336 180 158 127 90 61 39 39 36 28 24 29 37 48 62 67 70 70 66 66 72 72 72 74 69 68 78 82 79 81 85 87 90 89
350 346 340 335 334 329 323 319 314 310 305 299 294 291 288 281 278 279 278 276 276 276 277 280 281 279 275 270 267 265 267 271 269 260 253 249 249 248 251 254 255 267 278 282 278 278 271 180 153 119 65 252 178 164 151 106 79 51 35 40 36 15 13 27 41 60 70 68 71 69 67 76 83 84 85 85 84 82 79 77 82 87 91 94 92
5 357 352 347 344 338 331 328 324 321 320 315 309 307 302 292 283 279 276 275 274 274 273 273 273 274 271 268 266 265 266 269 268 258 248 246 246 241 241 247 251 259 269 270 255 253 260 216 177 164 202 214 192 177 155 113 86 67 46 40 39 30 13 12 24 46 62 63 69 70 64 74 89 95 94 89 82 76 78 84 88 89 95 98 93
357 349 347 342 336 332 327 324 322 319 318 316 313 311 308 303 296 286 277 273 271 268 265 266 268 269 268 267 267 267 266 267 264 254 246 246 246 238 232 234 242 251 257 254 240 234 254 242 194 189 206 202 193 188 161 119 94 85 74 52 40 48 42 18 14 33 47 54 74 78 70 77 89 97 100 93 83 76 76 86 93 93 94 98 100
348 339 333 328 323 318 314 311 308 306 306 306 305 304 302 301 300 295 286 278 273 269 266 266 268 269 268 266 264 264 265 264 259 249 245 248 244 233 226 226 232 239 239 234 230 224 233 248 222 206 209 206 200 196 175 139 121 120 90 68 48 52 53 33 30 64 52 54 80 83 74 77 81 85 91 95 93 84 77 84 93 93 90 94 105
338 329 324 322 319 315 310 307 304 302 301 299 298 297 297 296 297 297 294 287 282 278 274 271 271 270 267 266 264 262 263 262 258 249 245 247 240 229 225 225 224 227 227 221 219 218 215 226 232 215 204 209 207 200 193 173 146 127 97 99 99 92 69 26 34 94 99 82 83 81 75 77 77 77 84 95 99 92 84 88 92 89 92 99 105
330 325 322 321 316 312 309 306 304 302 301 300 298 297 297 297 298 299 298 294 290 285 279 277 274 267 262 262 260 258 259 259 256 251 246 242 237 229 225 222 216 216 222 220 212 202 187 198 225 223 190 201 207 201 201 193 167 150 158 161 149 118 98 54 22 68 102 97 84 79 72 67 67 73 83 95 107 102 92 92 93 88 92 99 103
329 324 321 318 313 311 310 308 307 307 305 303 301 300 301 301 302 304 303 301 298 294 287 280 272 261 259 262 257 252 254 256 253 250 245 239 236 229 222 218 213 211 214 216 207 189 183 201 217 215 181 187 209 202 199 195 185 181 176 157 135 104 93 74 30 61 103 105 98 92 86 75 68 71 74 82 107 116 106 95 91 88 88 92 99
333 329 328 324 319 320 320 317 317 316 311 308 306 304 303 303 304 306 304 302 304 303 293 277 264 255 258 264 259 251 251 252 252 251 246 239 233 228 222 219 218 215 214 211 203 191 195 208 212 198 184 188 196 193 191 191 190 186 173 157 136 107 93 77 56 106 121 119 114 108 100 90 79 73 71 69 95 121 123 109 95 90 88 87 93
336 336 336 332 329 331 331 328 328 326 320 317 316 311 307 306 305 304 300 296 300 302 293 278 268 259 257 263 263 257 252 250 251 252 247 239 232 227 224 220 217 217 213 207 200 197 204 210 202 184 180 178 178 183 181 183 185 178 167 156 127 100 90 75 64 109 118 115 113 113 111 102 88 79 78 76 86 110 127 125 110 98 92 90 94
335 338 339 336 334 335 334 330 330 329 326 324 325 321 316 313 309 306 303 298 295 295 293 285 276 267 263 263 262 260 256 253 251 251 247 239 231 227 226 223 218 214 209 204 200 200 203 201 186 177 174 162 157 162 168 175 177 172 163 144 115 99 99 90 85 117 125 118 109 106 104 98 93 88 81 84 93 96 111 128 124 109 99 98 102
337 338 338 337 335 334 332 328 327 329 326 324 323 321 317 318 315 311 308 304 300 297 295 291 285 276 271 265 256 256 260 257 249 245 243 236 230 228 226 221 216 210 208 206 201 197 196 193 182 173 163 154 151 153 164 171 170 164 155 133 113 119 130 102 86 109 122 117 109 104 105 103 98 92 85 92 103 103 115 130 129 119 110 106 106
341 340 336 334 332 329 328 326 326 327 323 319 319 316 312 314 314 313 311 309 306 304 299 293 288 280 275 270 256 251 260 262 249 240 237 233 231 230 225 219 213 209 208 205 198 193 193 190 185 176 157 147 142 148 159 163 159 158 155 139 134 156 155 125 105 103 107 115 118 113 111 106 92 83 87 98 108 121 134 136 129 119 115 115 116
341 337 331 329 326 322 322 322 322 321 317 314 314 311 307 306 306 307 308 305 305 308 306 299 293 282 275 273 261 252 259 265 255 242 238 235 232 229 224 219 214 211 208 202 195 191 191 190 194 190 157 136 123 135 156 162 164 169 168 161 159 159 148 123 106 100 97 100 104 99 99 101 93 87 98 109 116 132 142 139 129 121 120 122 125
337 331 325 323 319 315 315 316 316 313 310 309 308 305 303 301 299 300 301 300 302 303 302 303 303 293 275 268 261 254 259 265 260 247 245 242 235 229 225 220 215 212 209 202 194 189 189 195 202 192 152 139 139 155 168 173 179 178 169 164 164 157 145 129 116 112 107 101 95 88 90 98 99 99 105 111 124 141 146 140 128 124 127 126 124
329 324 320 317 313 310 311 312 310 307 305 305 303 302 302 301 300 299 300 302 305 304 299 298 300 299 290 277 262 252 255 260 254 240 242 241 232 227 226 223 217 214 209 200 192 190 192 196 196 181 168 168 172 176 175 175 181 181 171 167 166 162 159 154 144 135 126 115 108 102 99 97 101 109 110 111 131 145 147 140 130 128 129 124 118
322 318 316 312 310 309 310 309 307 305 304 304 303 302 303 303 302 301 301 302 304 304 302 297 292 292 296 295 282 265 258 251 235 225 231 229 219 216 217 213 210 211 206 198 193 193 195 194 188 183 183 185 185 181 175 176 182 182 173 170 170 167 164 160 153 147 141 129 119 115 111 105 102 110 113 119 137 146 147 140 133 131 126 118 115
320 316 314 312 310 310 308 307 307 306 306 306 305 302 302 303 303 303 304 303 301 302 305 303 295 288 288 292 293 285 270 250 231 225 226 216 208 209 209 205 203 204 202 197 196 197 195 192 190 187 185 188 191 185 174 176 184 183 176 175 173 169 169 167 160 154 152 144 133 125 120 115 106 105 114 131 145 149 149 145 141 137 129 122 119
322 318 316 314 312 312 311 310 311 310 308 307 305 304 304 304 304 304 304 302 301 303 307 307 302 294 286 284 288 289 277 253 233 225 221 212 203 201 201 202 204 204 201 197 197 197 195 193 193 192 186 186 192 185 174 176 184 183 179 177 173 171 175 172 161 152 151 148 140 132 127 123 114 106 117 139 152 152 151 152 153 145 134 125 121
327 321 318 317 316 316 316 314 311 308 306 306 305 304 302 300 299 300 301 301 301 304 306 306 305 302 293 283 281 283 276 253 229 220 218 212 201 195 194 197 200 202 202 201 199 197 194 190 193 196 190 184 187 184 175 176 182 182 180 177 174 174 176 171 160 156 157 152 143 136 135 134 129 118 120 138 154 155 152 154 158 153 142 133 127
329 325 323 321 321 318 314 311 309 306 305 303 300 299 298 298 298 300 300 299 299 299 300 301 301 302 298 285 275 276 276 257 228 214 211 208 200 194 192 193 195 197 199 200 200 199 194 189 192 199 195 185 185 186 179 175 180 183 179 175 174 173 172 170 165 163 162 157 150 142 138 138 140 135 126 136 153 158 155 156 161 158 149 144 138
326 325 322 320 319 317 313 311 309 305 303 303 303 303 304 304 303 301 298 297 296 294 295 296 294 294 296 292 280 272 272 262 233 211 203 202 202 199 195 194 196 199 200 199 198 196 193 190 193 199 199 190 185 184 180 178 178 179 178 177 174 170 170 172 170 165 162 162 156 147 141 139 141 137 130 137 150 156 158 160 164 159 150 149 148
321 321 321 320 321 320 316 312 308 304 304 305 306 307 306 304 302 301 298 297 296 293 293 292 289 288 293 294 287 274 265 256 234 210 199 200 204 204 200 198 199 202 204 203 199 193 190 190 193 197 200 195 187 183 181 178 177 179 178 174 170 172 176 175 170 165 163 161 157 150 145 143 142 140 137 139 146 152 157 162 164 157 148 148 149
321 322 323 322 322 320 314 309 307 307 308 309 307 306 305 303 302 301 300 299 298 296 293 290 287 286 286 286 283 275 260 242 226 210 201 200 202 202 200 200 202 205 207 208 203 194 190 191 192 194 199 197 189 185 182 177 177 181 178 171 174 183 184 177 167 162 162 161 159 156 151 147 147 147 143 141 147 154 160 166 166 157 147 145 146
322 322 322 320 320 319 314 311 312 312 312 311 309 307 306 305 304 302 301 300 299 296 294 290 286 284 281 277 275 270 257 237 224 215 208 204 201 199 198 198 200 204 209 211 206 194 191 193 192 192 199 201 193 187 182 177 177 180 178 175 180 184 179 173 168 166 164 163 162 159 154 151 152 151 146 144 150 156 161 167 167 160 152 150 150
323 320 319 321 324 323 319 317 316 315 314 311 310 310 308 307 306 304 302 301 299 295 292 289 286 281 275 268 265 263 256 241 227 221 215 209 204 200 197 197 199 203 209 211 205 192 190 196 195 191 197 204 199 189 181 177 177 178 177 177 178 175 171 171 173 170 165 165 165 161 157 155 154 153 151 146 146 152 158 164 166 163 159 157 156
322 319 318 322 324 322 320 319 317 316 316 315 313 312 310 307 305 302 299 297 297 295 291 286 283 278 271 264 262 262 260 251 233 224 220 217 211 205 199 199 203 206 208 207 201 189 189 198 199 192 194 205 205 192 182 179 178 177 176 175 174 173 170 171 172 169 166 165 164 160 158 157 156 156 156 149 145 150 157 163 167 166 162 160 161
326 322 319 321 321 319 319 319 318 318 318 316 313 312 311 308 306 304 301 296 293 292 290 287 284 279 273 266 260 256 256 255 241 226 221 220 216 210 205 204 206 209 208 205 196 187 189 199 201 192 193 206 209 198 187 183 179 178 178 176 174 174 171 168 169 169 165 160 160 162 163 161 158 158 156 150 148 150 156 164 170 171 166 165 168
333 325 319 320 320 319 318 318 318 317 317 315 314 315 315 312 310 307 304 298 293 290 290 289 286 282 277 270 261 254 251 251 244 230 222 217 211 209 209 205 201 203 205 202 190 183 189 200 202 193 193 206 210 200 189 186 182 179 179 178 176 175 172 169 168 167 163 161 165 168 164 159 156 156 152 149 150 153 155 162 171 174 173 172 174
334 325 322 323 322 320 318 318 317 316 315 315 315 315 313 310 304 300 297 294 291 289 287 285 284 281 278 274 267 260 254 246 237 229 223 214 204 203 205 200 193 196 200 195 183 180 188 200 202 194 192 204 210 199 186 187 187 182 180 180 177 175 172 170 169 166 164 166 169 169 166 164 161 157 153 151 155 159 160 162 169 175 179 179 177
336 331 330 328 325 321 319 317 316 315 314 313 311 310 309 306 300 295 291 289 289 287 285 281 277 273 271 269 266 262 255 244 233 228 225 213 199 195 196 193 191 194 196 188 180 182 190 199 202 193 188 201 208 198 186 191 193 185 182 182 179 175 173 171 168 166 165 165 166 166 167 166 158 152 154 157 160 161 162 166 172 178 182 183 181
341 337 334 328 323 321 319 317 316 315 313 310 308 308 307 304 300 296 293 291 289 288 285 281 275 267 264 262 258 255 250 240 230 228 224 211 196 189 189 189 190 193 190 181 180 186 192 197 198 191 187 199 206 198 193 200 200 190 186 185 179 175 173 170 167 166 166 164 162 161 161 157 154 157 161 162 160 161 166 173 178 180 182 184 184
342 337 333 327 324 324 321 319 318 316 314 313 310 308 306 303 301 298 296 294 292 290 287 284 277 268 262 257 252 250 246 236 229 228 221 207 195 187 185 185 188 189 184 178 180 187 192 195 195 188 188 199 206 203 200 202 199 192 192 187 176 172 174 171 166 165 165 162 159 159 158 154 155 161 162 157 156 164 172 178 181 182 183 183 182
338 334 332 331 330 329 327 325 322 318 316 315 313 310 308 305 302 299 296 293 291 288 284 279 274 270 263 252 247 247 241 230 226 226 217 203 191 184 183 185 186 184 179 176 181 187 192 195 192 186 189 202 208 205 202 201 195 191 190 185 180 180 180 173 165 163 165 161 157 158 158 154 152 155 155 153 158 167 175 179 180 179 178 177 175
335 333 333 333 333 332 329 327 323 319 318 319 318 315 313 309 306 303 300 295 291 286 280 274 269 266 259 251 247 245 236 226 225 225 215 199 185 180 182 184 184 182 179 177 180 184 191 194 190 186 193 204 206 203 200 199 193 189 189 191 192 190 183 173 166 166 165 159 154 155 157 154 151 152 154 155 156 163 173 179 177 172 169 169 170
337 337 336 335 335 333 330 326 324 324 325 326 323 321 318 316 313 310 308 304 299 291 281 273 266 260 256 250 243 236 231 226 224 222 211 194 181 178 180 181 182 182 181 178 178 184 190 191 186 186 195 202 202 199 196 194 193 192 191 192 193 189 182 177 173 169 161 154 153 156 155 152 151 152 152 151 150 156 171 178 175 170 168 168 167
342 341 340 340 338 336 333 331 331 332 332 331 329 327 324 321 318 314 312 311 308 299 287 275 263 255 254 248 234 228 229 224 218 217 208 189 177 177 178 179 180 181 178 175 179 185 188 185 183 187 195 199 197 194 192 192 194 193 187 182 182 183 182 181 178 170 158 153 157 158 152 149 152 152 148 148 155 166 175 175 171 168 167 165 164